Regional Weather Roundup
Issued by NWS Bismarck, ND

Home | Current Version | Previous Version | Text Only | Print | Product List | Glossary On
Versions: 1 2 3 4 5 6 7 8 9 10 11 12 13 14 15 16 17 18 19 20 21 22 23 24 25 26 27 28 29 30 31 32 33 34 35 36 37 38 39 40 41 42 43 44 45 46 47 48 49 50
000
ASUS43 KBIS 031410
RWRBIS

NWR BROADCAST TEXT
NATIONAL WEATHER SERVICE BISMARCK ND
900 AM CDT SUN MAY 03 2015

NOTE: "FAIR" INDICATES FEW OR NO CLOUDS BELOW 12,000 FEET WITH NO
SIGNIFICANT WEATHER AND/OR OBSTRUCTIONS TO VISIBILITY.


CITY           SKY/WX    TMP DP  RH WIND       PRES   REMARKS
WILLISTON      SUNNY     50  31  48 N10G18    30.01R
MINOT          MOSUNNY   51  33  50 W14       29.95R
MINOT AFB      MOSUNNY   51  33  50 NW18      29.94R
BISMARCK       CLOUDY    53  37  54 N12       29.96R
DICKINSON      CLOUDY    49  36  61 N6        29.98R
GARRISON         N/A     50  38  63 NW6       29.97R
HETTINGER ARPT PTSUNNY   51  37  58 N12       29.98S
JAMESTOWN      LGT RAIN  53  37  54 N20       29.88R
BEACH          PTSUNNY   46  36  66 N7        30.03R
CARRINGTON     FAIR      50  39  66 NW18      29.94R
CROSBY         FAIR      48  32  53 NW16      29.99R
HARVEY         FAIR      50  37  62 NW10      29.94R
HAZEN          CLOUDY    50  37  62 NW8       29.99R
LINTON           N/A     54  39  58 N20G28    29.92R
MANDAN         FAIR      50  37  62 N14       29.97R
OAKES            N/A     57  39  51 N23G33    29.85R
STANLEY        FAIR      46  34  61 N15G22    29.98R
WATFORD CITY   PTSUNNY   48  34  57 N9        29.99R
$$

CITY           SKY/WX    TMP DP  RH WIND       PRES   REMARKS
GRAND FORKS    CLOUDY    54  40  59 NW17      29.84R
GRAND FORKS AF CLOUDY    53  40  60 NW12      29.85R
DEVILS LAKE    PTSUNNY   52  36  54 NW15      29.89R
FARGO          CLOUDY    57  43  59 N16       29.84R
CANDO          FAIR      54  36  50 NW15      29.90R
CAVALIER       FAIR      54  39  58 NW15G23   29.84R
GRAFTON        FAIR      54  41  62 W15       29.86R
GWINNER        SUNNY     61  37  41 N23G30    29.86R
LANGDON        FAIR      52  37  58 NW22G28   29.86R
WALHALLA       FAIR      54  37  54 NW13G23   29.84R
$$

CITY           SKY/WX    TMP DP  RH WIND       PRES   REMARKS
ABERDEEN       SUNNY     60  40  47 N24G31    29.83R
MOBRIDGE       SUNNY     58  38  47 N23G32    29.86R
BUFFALO          N/A     52  37  56 NE14      29.92R
RAPID CITY     PTSUNNY   56  36  47 N21       29.95R
GLASGOW        PTSUNNY   42  32  67 SW5       30.04R
SIDNEY         MOSUNNY   50  34  53 N8        30.03R
WOLF POINT     SUNNY     46  33  60 SW5       30.04R
GLENDIVE       CLOUDY    48  36  61 N5        30.03R
MILES CITY     PTSUNNY   48  34  58 N6        30.03R
BAKER          PTSUNNY   50  35  56 NE8       30.01R
$$

CITY           SKY/WX    TMP DP  RH WIND       PRES   REMARKS
BILLINGS       PTSUNNY   46  33  60 NE8       30.05R
GREAT FALLS    SUNNY     41  27  57 CALM      30.03R
REGINA         MOSUNNY   41  36  81 NW20      29.97R
ESTEVAN        MOSUNNY   45  32  61 NW18      29.97R
$$



USA.gov is the U.S. government's official web portal to all federal, state and local government web resources and services.